[[{"header":{"parameterUnit":"m.s-1","parameterCategory":2,"la1":30.2992,"la2":30.254,"lo1":-89.0895,"lo2":-89.0443,"dy":0.0025,"dx":0.0025,"nx":19,"ny":19,"refTime":"2026-05-15T09:00:00:Z","depth":"0","parameterNumber":2,"parameterNumberName":"U-component_of_CURRENTS"},"data":[0,0,0,-0.0938,-0.0938,-0.0923,-0.0923,-0.0899,-0.0899,0,0,0,0,0,0,0,0,0,0,0,-0.0939,-0.0938,-0.0938,-0.0938,-0.0923,-0.0923,-0.0899,-0.0899,0,0,0,0,0,0,0,0,0,0,0,-0.0939,-0.0939,-0.0938,-0.0938,-0.0922,-0.0923,-0.0899,-0.0914,0,0,0,0,0,0,0,0,0,0,-0.093,-0.0937,-0.0939,-0.0938,-0.0937,-0.0922,-0.0923,-0.0914,-0.0913,-0.0902,0,-0.089,0,-0.0891,-0.0896,-0.0896,0,0,0,-0.0945,-0.0938,-0.0924,-0.0938,-0.0937,-0.0922,-0.0932,-0.0914,-0.0912,-0.09,-0.0889,-0.0889,-0.0891,-0.0896,-0.0896,-0.0904,-0.0904,0,0,-0.0946,-0.0948,-0.0925,-0.0922,-0.0919,-0.0932,-0.0931,-0.0912,-0.091,-0.0889,-0.0888,-0.0891,-0.0896,-0.0896,-0.0904,-0.0904,0,0,0,-0.0943,-0.0949,-0.0936,-0.0923,-0.0919,-0.0931,-0.093,-0.0911,-0.0903,-0.0888,-0.089,-0.0896,-0.0895,-0.0903,-0.0904,-0.0943,0,0,0,-0.0944,-0.0947,-0.0936,-0.0939,-0.0919,-0.0918,-0.0929,-0.0905,-0.0903,-0.089,-0.0896,-0.0895,-0.0903,-0.0903,-0.0941,-0.0948,0,0,0,-0.0942,-0.0947,-0.0938,-0.0939,-0.0928,-0.0918,-0.091,-0.0905,-0.0904,-0.0896,-0.0895,-0.0903,-0.0903,-0.094,-0.0946,-0.099,0,0,0,-0.0955,-0.0942,-0.0938,-0.0934,-0.0928,-0.0939,-0.0911,-0.0919,-0.0917,-0.0896,-0.0903,-0.0904,-0.0939,-0.0944,-0.0988,-0.1071,-0.1087,0,0,-0.0948,-0.0942,-0.0942,-0.0938,-0.0961,-0.0942,-0.0968,-0.0948,-0.0926,-0.0909,-0.0909,-0.0942,-0.0945,-0.0989,-0.112,-0.1134,0,0,0,-0.0947,-0.0948,-0.0956,-0.0965,-0.097,-0.0982,-0.0972,-0.0971,-0.0964,-0.0925,-0.0948,-0.0949,-0.0975,-0.1022,-0.1034,-0.0934,-0.0908,-0.0907,-0.0907,-0.096,-0.0967,-0.0977,-0.0988,-0.0998,-0.1014,-0.1025,-0.1018,-0.0994,-0.1003,-0.0986,-0.1051,-0.1101,-0.1111,-0.1007,-0.0997,-0.0997,-0.0998,-0.0998,-0.0968,-0.0973,-0.0989,-0.0996,-0.1014,-0.1029,-0.1054,-0.1052,-0.1075,-0.1037,-0.1062,-0.1067,-0.1126,-0.101,-0.1,-0.1,-0.1,-0.0999,-0.0999,-0.0985,-0.0982,-0.0983,-0.0993,-0.1008,-0.1024,-0.1051,-0.107,-0.1097,-0.1121,-0.1175,-0.1175,-0.107,-0.1135,-0.1136,-0.1136,-0.1136,-0.1136,-0.1136,-0.099,-0.0991,-0.099,-0.0989,-0.0983,-0.0997,-0.1043,-0.1082,-0.1177,-0.1222,-0.1223,-0.1087,-0.1093,-0.1083,-0.114,-0.1139,-0.1139,-0.1139,-0.1138,-0.0996,-0.0998,-0.099,-0.098,-0.0956,-0.0941,-0.1007,-0.1135,-0.1215,-0.1284,-0.1237,-0.1289,-0.1285,-0.1276,-0.1271,-0.1373,-0.1373,-0.1373,-0.1374,-0.1003,-0.1003,-0.0984,-0.0951,-0.092,-0.091,-0.0956,-0.1111,-0.1253,-0.1312,-0.1274,-0.1242,-0.1237,-0.1225,-0.1217,-0.1209,-0.1293,-0.1292,-0.1292,-0.1005,-0.1,-0.0976,-0.0936,-0.0881,-0.0866,-0.0892,-0.1048,-0.1266,-0.1272,-0.1115,-0.1118,-0.1049,-0.105,-0.1013,-0.101,-0.0989,0,0]},{"header":{"parameterUnit":"m.s-1","parameterCategory":2,"la1":30.2992,"la2":30.254,"lo1":-89.0895,"lo2":-89.0443,"dy":0.0025,"dx":0.0025,"nx":19,"ny":19,"refTime":"2026-05-15T09:00:00:Z","depth":"0","parameterNumber":3,"parameterNumberName":"V-component_of_CURRENTS"},"data":[0,0,0,-0.0597,-0.0597,-0.0556,-0.0556,-0.0532,-0.0531,0,0,0,0,0,0,0,0,0,0,0,-0.062,-0.062,-0.0597,-0.0596,-0.0556,-0.0556,-0.0532,-0.0531,0,0,0,0,0,0,0,0,0,0,0,-0.062,-0.062,-0.062,-0.0596,-0.0557,-0.0556,-0.0532,-0.0555,0,0,0,0,0,0,0,0,0,0,-0.0591,-0.0618,-0.062,-0.062,-0.0596,-0.0557,-0.0556,-0.0556,-0.0554,-0.0557,0,-0.0557,0,-0.054,-0.053,-0.053,0,0,0,-0.0596,-0.062,-0.0598,-0.062,-0.0596,-0.0557,-0.0574,-0.0555,-0.0552,-0.0554,-0.0556,-0.0555,-0.054,-0.053,-0.053,-0.0555,-0.0555,0,0,-0.0598,-0.0622,-0.06,-0.0596,-0.0593,-0.0576,-0.0573,-0.0553,-0.0561,-0.0556,-0.0554,-0.0539,-0.053,-0.053,-0.0555,-0.0555,0,0,0,-0.0605,-0.0624,-0.0602,-0.0598,-0.0587,-0.0575,-0.0572,-0.0562,-0.0552,-0.0554,-0.0539,-0.053,-0.053,-0.0554,-0.0555,-0.0584,0,0,0,-0.0606,-0.0627,-0.0603,-0.0618,-0.0587,-0.0572,-0.0582,-0.0553,-0.055,-0.0539,-0.053,-0.053,-0.0554,-0.0555,-0.0582,-0.0629,0,0,0,-0.0621,-0.0629,-0.0624,-0.062,-0.06,-0.0572,-0.0561,-0.0552,-0.0541,-0.053,-0.053,-0.0553,-0.0554,-0.058,-0.0625,-0.0691,0,0,0,-0.0646,-0.0659,-0.0625,-0.0632,-0.06,-0.0585,-0.0561,-0.0554,-0.0548,-0.053,-0.0554,-0.0555,-0.058,-0.0623,-0.0688,-0.0849,-0.0875,0,0,-0.0675,-0.0663,-0.0663,-0.0632,-0.063,-0.059,-0.06,-0.0581,-0.0564,-0.0561,-0.0561,-0.0583,-0.0625,-0.069,-0.0902,-0.0927,0,0,0,-0.068,-0.0683,-0.0678,-0.0664,-0.0639,-0.0641,-0.0607,-0.0599,-0.0595,-0.0563,-0.0593,-0.062,-0.066,-0.0751,-0.0771,-0.0466,-0.0559,-0.0559,-0.0559,-0.077,-0.073,-0.0734,-0.0695,-0.0692,-0.0671,-0.0678,-0.0664,-0.0625,-0.0633,-0.065,-0.0733,-0.0829,-0.0846,-0.0527,-0.0639,-0.0639,-0.0639,-0.0639,-0.081,-0.0802,-0.0768,-0.0755,-0.0744,-0.0749,-0.0743,-0.0725,-0.075,-0.0694,-0.0731,-0.0785,-0.087,-0.0522,-0.0641,-0.0641,-0.0641,-0.0641,-0.0641,-0.086,-0.0848,-0.0827,-0.0808,-0.0823,-0.081,-0.0866,-0.0833,-0.0809,-0.0835,-0.095,-0.0952,-0.0644,-0.0849,-0.085,-0.085,-0.0851,-0.0851,-0.0851,-0.0914,-0.0889,-0.0893,-0.0874,-0.0886,-0.092,-0.0942,-0.0983,-0.104,-0.1033,-0.1034,-0.0649,-0.0798,-0.0787,-0.0859,-0.0858,-0.0857,-0.0856,-0.0856,-0.0932,-0.0941,-0.0955,-0.0965,-0.1001,-0.11,-0.1111,-0.1256,-0.1286,-0.1356,-0.0902,-0.1146,-0.1166,-0.1151,-0.1151,-0.1312,-0.1312,-0.1312,-0.1313,-0.096,-0.0959,-0.1001,-0.1041,-0.1112,-0.1183,-0.1397,-0.1496,-0.129,-0.1109,-0.0908,-0.0819,-0.0815,-0.0804,-0.0797,-0.0784,-0.0849,-0.0847,-0.0846,-0.0955,-0.0986,-0.102,-0.1071,-0.1153,-0.1305,-0.1531,-0.1647,-0.122,-0.0781,-0.0438,-0.0459,-0.0273,-0.0291,-0.0231,-0.0246,-0.0211,0,0]}],[{"header":{"parameterUnit":"m.s-1","parameterCategory":2,"la1":30.2992,"la2":30.254,"lo1":-89.0895,"lo2":-89.0443,"dy":0.0025,"dx":0.0025,"nx":19,"ny":19,"refTime":"2026-05-15T09:00:00:Z","depth":"2","parameterNumber":2,"parameterNumberName":"U-component_of_CURRENTS"},"data":[0,0,0,-0.1051,-0.105,-0.0996,-0.0996,-0.1018,-0.1019,0,0,0,0,0,0,0,0,0,0,0,-0.1058,-0.1058,-0.1051,-0.105,-0.0996,-0.0996,-0.1018,-0.1019,0,0,0,0,0,0,0,0,0,0,0,-0.1059,-0.1058,-0.1057,-0.1049,-0.0996,-0.0996,-0.1018,-0.1035,0,0,0,0,0,0,0,0,0,0,-0.1076,-0.106,-0.1058,-0.1057,-0.1049,-0.0996,-0.0996,-0.1035,-0.1034,-0.1069,0,-0.1049,0,-0.1043,-0.1022,-0.1023,0,0,0,-0.1047,-0.106,-0.1059,-0.1057,-0.1049,-0.0996,-0.102,-0.1034,-0.1033,-0.1068,-0.1049,-0.105,-0.1043,-0.1023,-0.1023,-0.1115,-0.1115,0,0,-0.105,-0.1041,-0.1059,-0.1058,-0.1022,-0.1021,-0.1018,-0.1032,-0.1021,-0.1049,-0.105,-0.1043,-0.1023,-0.1024,-0.1114,-0.1115,0,0,0,-0.106,-0.1043,-0.1039,-0.1057,-0.1045,-0.102,-0.1016,-0.102,-0.1021,-0.105,-0.1044,-0.1024,-0.1024,-0.1113,-0.1114,-0.1082,0,0,0,-0.1062,-0.105,-0.104,-0.1033,-0.1043,-0.1017,-0.1003,-0.102,-0.1021,-0.1043,-0.1024,-0.1025,-0.1113,-0.1114,-0.1082,-0.113,0,0,0,-0.1063,-0.105,-0.1042,-0.1033,-0.1014,-0.1016,-0.1017,-0.1019,-0.1019,-0.1023,-0.1025,-0.1112,-0.1114,-0.1081,-0.1128,-0.1204,0,0,0,-0.1059,-0.1056,-0.1041,-0.1037,-0.1014,-0.1032,-0.1017,-0.1026,-0.1032,-0.1024,-0.1113,-0.1114,-0.1081,-0.1127,-0.1202,-0.1256,-0.1272,0,0,-0.1064,-0.1055,-0.1058,-0.1045,-0.1061,-0.104,-0.1058,-0.1054,-0.1068,-0.1113,-0.1114,-0.1082,-0.1128,-0.1203,-0.1336,-0.1349,0,0,0,-0.1068,-0.1059,-0.1066,-0.1059,-0.1074,-0.109,-0.1072,-0.1078,-0.1095,-0.1077,-0.112,-0.1152,-0.1199,-0.1228,-0.1239,-0.1121,-0.1121,-0.1121,-0.112,-0.104,-0.1057,-0.1064,-0.1081,-0.1101,-0.1121,-0.1147,-0.116,-0.1124,-0.1135,-0.115,-0.1229,-0.1256,-0.1266,-0.1146,-0.1146,-0.1146,-0.1146,-0.1146,-0.1042,-0.1043,-0.1067,-0.1077,-0.1112,-0.1123,-0.1194,-0.1181,-0.1236,-0.1179,-0.1224,-0.1224,-0.1276,-0.1144,-0.1145,-0.1145,-0.1145,-0.1145,-0.1145,-0.1017,-0.1025,-0.1023,-0.106,-0.1086,-0.1124,-0.1215,-0.1235,-0.1258,-0.1297,-0.1352,-0.1353,-0.124,-0.1293,-0.1294,-0.1294,-0.1295,-0.1295,-0.1296,-0.0991,-0.1001,-0.1013,-0.1051,-0.1066,-0.1123,-0.1223,-0.13,-0.1387,-0.1393,-0.1393,-0.1281,-0.1276,-0.1253,-0.1304,-0.1302,-0.1301,-0.13,-0.13,-0.0948,-0.0972,-0.0998,-0.1018,-0.1067,-0.1104,-0.1248,-0.1403,-0.1512,-0.1572,-0.1472,-0.1465,-0.1507,-0.1498,-0.1484,-0.1592,-0.1592,-0.1592,-0.1592,-0.0916,-0.0937,-0.0952,-0.0973,-0.1028,-0.1078,-0.1216,-0.1361,-0.1484,-0.1491,-0.1494,-0.1413,-0.1405,-0.1437,-0.1429,-0.1411,-0.15,-0.1499,-0.1498,-0.0877,-0.0902,-0.0882,-0.0907,-0.095,-0.1019,-0.1095,-0.1117,-0.1198,-0.1484,-0.1362,-0.1608,-0.1495,-0.1481,-0.1533,-0.152,-0.1492,0,0]},{"header":{"parameterUnit":"m.s-1","parameterCategory":2,"la1":30.2992,"la2":30.254,"lo1":-89.0895,"lo2":-89.0443,"dy":0.0025,"dx":0.0025,"nx":19,"ny":19,"refTime":"2026-05-15T09:00:00:Z","depth":"2","parameterNumber":3,"parameterNumberName":"V-component_of_CURRENTS"},"data":[0,0,0,0.0208,0.0209,0.0193,0.0192,0.0189,0.0189,0,0,0,0,0,0,0,0,0,0,0,0.0169,0.0169,0.0207,0.0209,0.0193,0.0192,0.0189,0.0189,0,0,0,0,0,0,0,0,0,0,0,0.0169,0.0169,0.0169,0.0209,0.0193,0.0192,0.0189,0.0186,0,0,0,0,0,0,0,0,0,0,0.0195,0.0172,0.0169,0.0169,0.0209,0.0193,0.0192,0.0185,0.0186,0.0214,0,0.0207,0,0.0238,0.0193,0.0194,0,0,0,0.0166,0.0171,0.0184,0.0169,0.021,0.0193,0.0188,0.0186,0.0187,0.0216,0.0207,0.0208,0.0238,0.0194,0.0194,0.0219,0.0219,0,0,0.0167,0.0152,0.0183,0.0184,0.0201,0.0189,0.0188,0.0186,0.0176,0.0207,0.0209,0.0238,0.0194,0.0195,0.0219,0.0219,0,0,0,0.0198,0.0152,0.0163,0.0183,0.0202,0.0189,0.0188,0.0174,0.0182,0.0209,0.0238,0.0195,0.0195,0.0219,0.0219,0.011,0,0,0,0.0197,0.0175,0.0164,0.0152,0.0201,0.0189,0.0177,0.018,0.0183,0.0238,0.0195,0.0196,0.022,0.0219,0.0114,0.012,0,0,0,0.0171,0.0173,0.0172,0.0152,0.0172,0.019,0.0195,0.018,0.0204,0.0194,0.0196,0.022,0.0219,0.0117,0.0124,0.0126,0,0,0,0.0154,0.0149,0.0171,0.0166,0.0172,0.0159,0.0195,0.0164,0.0145,0.0195,0.022,0.0219,0.0118,0.0127,0.0128,0.0113,0.0103,0,0,0.0144,0.0146,0.0144,0.0166,0.0141,0.0158,0.0124,0.0112,0.0156,0.0215,0.0215,0.0113,0.0125,0.0126,0.0088,0.0079,0,0,0,0.014,0.0126,0.0123,0.0113,0.0117,0.0098,0.0094,0.0103,0.0104,0.0157,0.0135,0.0148,0.0151,0.0146,0.0139,0.0217,0.0217,0.0217,0.0217,0.0053,0.0072,0.0048,0.0055,0.0043,0.0041,0.0035,0.0057,0.0067,0.0052,0.0071,0.0026,0.0016,0.0012,0.006,0.006,0.0059,0.0059,0.0059,0.0015,-0.0,-0.0003,-0.0013,-0.0025,-0.0057,-0.0025,-0.0025,0.0,0.0011,0.0017,0.0049,-0.0003,0.0051,0.0052,0.0053,0.0054,0.0055,0.0055,-0.0041,-0.0043,-0.0043,-0.0069,-0.011,-0.0116,-0.0127,-0.0094,-0.0061,-0.006,-0.0045,-0.0043,-0.0013,-0.0087,-0.0087,-0.0087,-0.0087,-0.0087,-0.0087,-0.0094,-0.0089,-0.0121,-0.0128,-0.0167,-0.0194,-0.0186,-0.0175,-0.0145,-0.0109,-0.0109,-0.0021,-0.0017,-0.0017,-0.0087,-0.0087,-0.0087,-0.0087,-0.0087,-0.0158,-0.0151,-0.0196,-0.0225,-0.0264,-0.0289,-0.0262,-0.0264,-0.0234,-0.0221,-0.0118,-0.0117,-0.0061,-0.0054,-0.0054,-0.0128,-0.0128,-0.0128,-0.0128,-0.0223,-0.0213,-0.0291,-0.0329,-0.0349,-0.0338,-0.0366,-0.02,-0.0085,0.0133,0.0123,0.0141,0.0134,0.0206,0.0206,0.0215,0.0211,0.0212,0.0214,-0.0294,-0.0306,-0.038,-0.0388,-0.0399,-0.04,-0.0397,-0.0094,0.0356,0.0241,0.033,-0.0134,-0.0139,-0.0137,-0.0049,-0.004,-0.0035,0,0]}],[{"header":{"parameterUnit":"m.s-1","parameterCategory":2,"la1":30.2992,"la2":30.254,"lo1":-89.0895,"lo2":-89.0443,"dy":0.0025,"dx":0.0025,"nx":19,"ny":19,"refTime":"2026-05-15T09:00:00:Z","depth":"4","parameterNumber":2,"parameterNumberName":"U-component_of_CURRENTS"},"data":[0,0,0,-0.086,-0.0861,-0.0929,-0.093,-0.1337,-0.1341,0,0,0,0,0,0,0,0,0,0,0,-0.0878,-0.0879,-0.086,-0.0861,-0.0929,-0.093,-0.1336,-0.1341,0,0,0,0,0,0,0,0,0,0,0,-0.0878,-0.0879,-0.088,-0.0861,-0.0929,-0.093,-0.1335,-0.1212,0,0,0,0,0,0,0,0,0,0,-0.1109,-0.1024,-0.0879,-0.088,-0.0861,-0.0929,-0.093,-0.1203,-0.122,-0.1386,0,-0.1399,0,-0.1356,-0.1372,-0.1374,0,0,0,-0.0896,-0.1009,-0.106,-0.088,-0.0861,-0.0929,-0.0908,-0.121,-0.123,-0.141,-0.1404,-0.1415,-0.1363,-0.1375,-0.1377,-0.1801,-0.1802,0,0,-0.0892,-0.0871,-0.1046,-0.1072,-0.0892,-0.0906,-0.091,-0.1219,-0.1235,-0.1405,-0.1423,-0.1369,-0.1378,-0.1382,-0.18,-0.1801,0,0,0,-0.0857,-0.0868,-0.0904,-0.1059,-0.1033,-0.0907,-0.0912,-0.122,-0.1242,-0.1426,-0.1374,-0.1381,-0.1387,-0.1798,-0.18,-0.1727,0,0,0,-0.0857,-0.0845,-0.0903,-0.0888,-0.1024,-0.1069,-0.0907,-0.1221,-0.1251,-0.1372,-0.1381,-0.1391,-0.1797,-0.1799,-0.1726,-0.161,0,0,0,-0.0873,-0.0844,-0.0863,-0.0887,-0.0898,-0.1062,-0.1099,-0.1225,-0.1221,-0.1374,-0.1392,-0.1796,-0.1799,-0.1726,-0.1613,-0.1492,0,0,0,-0.0837,-0.0859,-0.0863,-0.0873,-0.0897,-0.0971,-0.1095,-0.1208,-0.1334,-0.1383,-0.1797,-0.18,-0.1725,-0.1615,-0.1495,-0.1405,0,0,0,-0.0845,-0.0859,-0.0866,-0.087,-0.0869,-0.0963,-0.1041,-0.1277,-0.144,-0.1722,-0.173,-0.1727,-0.1613,-0.1493,-0.157,0,0,0,0,-0.0854,-0.0864,-0.0866,-0.0863,-0.0915,-0.0954,-0.1159,-0.1281,-0.1554,-0.1517,-0.1803,-0.1733,-0.1658,-0.1624,-0.1813,-0.1813,-0.1813,-0.1812,-0.1812,-0.0797,-0.0821,-0.0824,-0.0864,-0.0893,-0.1018,-0.1106,-0.1333,-0.1554,-0.1676,-0.1734,-0.1666,-0.1642,-0.185,-0.1849,-0.1849,-0.1849,-0.1849,-0.1849,-0.0783,-0.0775,-0.0796,-0.0822,-0.0851,-0.094,-0.1139,-0.1296,-0.1513,-0.1702,-0.1636,-0.1629,-0.1843,-0.1844,-0.1845,-0.1846,-0.1846,-0.1847,-0.1847,-0.0718,-0.0724,-0.0766,-0.079,-0.0816,-0.0927,-0.1003,-0.1215,-0.1397,-0.1416,-0.1404,-0.1573,-0.1501,-0.1442,-0.1441,-0.144,-0.1439,-0.1439,-0.1438,-0.0626,-0.0673,-0.0714,-0.0763,-0.0791,-0.0851,-0.0979,-0.1036,-0.119,-0.1252,-0.1414,-0.1525,-0.1539,-0.1479,-0.1423,-0.1425,-0.1427,-0.1429,-0.143,-0.0562,-0.0589,-0.0638,-0.0689,-0.0784,-0.0815,-0.0906,-0.0889,-0.0897,-0.088,-0.1135,-0.1154,-0.1131,-0.1152,-0.1077,-0.0899,-0.0897,-0.0896,0,-0.049,-0.0518,-0.0567,-0.0646,-0.0721,-0.0798,-0.0797,-0.0807,-0.083,-0.083,-0.0925,-0.1216,-0.123,-0.1216,-0.1231,-0.1149,0,0,0,-0.045,-0.0461,-0.048,-0.0578,-0.0688,-0.0738,-0.0789,-0.0759,-0.0846,-0.0759,-0.0856,-0.0867,-0.1233,-0.1378,-0.1385,-0.1401,-0.1302,0,0]},{"header":{"parameterUnit":"m.s-1","parameterCategory":2,"la1":30.2992,"la2":30.254,"lo1":-89.0895,"lo2":-89.0443,"dy":0.0025,"dx":0.0025,"nx":19,"ny":19,"refTime":"2026-05-15T09:00:00:Z","depth":"4","parameterNumber":3,"parameterNumberName":"V-component_of_CURRENTS"},"data":[0,0,0,-0.0032,-0.0033,-0.0063,-0.0063,0.0057,0.0058,0,0,0,0,0,0,0,0,0,0,0,-0.001,-0.001,-0.0032,-0.0033,-0.0063,-0.0063,0.0057,0.0058,0,0,0,0,0,0,0,0,0,0,0,-0.001,-0.001,-0.001,-0.0033,-0.0063,-0.0063,0.0056,0.0039,0,0,0,0,0,0,0,0,0,0,0.0049,0.0032,-0.001,-0.001,-0.0033,-0.0063,-0.0063,0.0037,0.004,0.0117,0,0.0118,0,0.0092,0.007,0.0071,0,0,0,-0.0035,0.0028,0.0035,-0.001,-0.0033,-0.0063,-0.005,0.0037,0.0042,0.0123,0.0119,0.0122,0.0094,0.0071,0.0072,0.0247,0.0247,0,0,-0.0033,-0.0027,0.0031,0.0038,-0.0028,-0.0049,-0.0051,0.0038,0.0044,0.012,0.0124,0.0096,0.0073,0.0074,0.0246,0.0247,0,0,0,-0.0027,-0.0026,-0.0025,0.0035,0.0017,-0.005,-0.0052,0.004,0.0044,0.0125,0.0098,0.0074,0.0076,0.0245,0.0246,0.0231,0,0,0,-0.0026,-0.0022,-0.0024,-0.0023,0.0014,0.0002,-0.0052,0.0038,0.0046,0.0097,0.0074,0.0078,0.0245,0.0246,0.023,0.0136,0,0,0,-0.0011,-0.0022,-0.0019,-0.0022,-0.0035,-0.0001,0.0006,0.0038,0.0031,0.0071,0.0078,0.0244,0.0246,0.0229,0.0138,0.021,0,0,0,-0.0014,-0.0041,-0.0018,-0.0064,-0.0035,-0.0089,0.0005,-0.0013,0.0008,0.0075,0.0245,0.0246,0.0229,0.0139,0.021,0.0257,0,0,0,-0.0059,-0.0046,-0.0079,-0.006,-0.0137,-0.0085,-0.014,-0.0057,0.0071,0.0225,0.0228,0.0231,0.0138,0.021,0.0339,0,0,0,0,-0.0103,-0.0116,-0.0139,-0.0172,-0.0194,-0.0205,-0.015,-0.0061,0.0125,0.0093,0.0263,0.0204,0.0251,0.0281,0.0253,0.0253,0.0253,0.0253,0.0252,-0.0135,-0.0167,-0.0225,-0.0259,-0.0286,-0.0276,-0.0235,-0.008,0.0057,0.0176,0.0221,0.0286,0.032,0.03,0.03,0.0299,0.0299,0.0299,0.0299,-0.0197,-0.0223,-0.0266,-0.0329,-0.0344,-0.0365,-0.0247,-0.0131,0.0107,0.0208,0.0261,0.0294,0.0299,0.0299,0.0299,0.0299,0.0299,0.0299,0.0299,-0.0194,-0.0212,-0.0254,-0.0334,-0.0373,-0.0378,-0.029,-0.0159,0.0065,0.014,0.0303,0.0278,0.025,0.0267,0.0267,0.0267,0.0267,0.0267,0.0267,-0.0159,-0.0209,-0.0253,-0.0326,-0.0361,-0.0358,-0.0264,-0.0131,0.0047,0.0234,0.0188,0.0275,0.0276,0.025,0.0266,0.0266,0.0266,0.0266,0.0266,-0.0147,-0.0156,-0.0227,-0.0268,-0.0339,-0.0331,-0.0264,-0.0025,0.0148,0.0309,0.0313,0.0311,0.0317,0.0317,0.0292,0.0321,0.0321,0.0322,0,-0.0112,-0.013,-0.0206,-0.0269,-0.0299,-0.0313,-0.009,0.0051,0.0211,0.0202,0.0153,0.0143,0.0148,0.0138,0.014,0.0103,0,0,0,-0.0096,-0.0123,-0.0163,-0.0245,-0.0297,-0.014,-0.0036,0.0066,0.0165,0.0351,0.0338,0.0334,0.0281,0.0262,0.0266,0.0267,0.0225,0,0]}]]